sat.trackr.live / text

‹ back to catalog

STARLINK-30212

NORAD 57506 · 2023-113M

PAYLOAD ACTIVE UNKNOWN

§ Identity

Operator
Country
US
Launch date
2023-08-07
Launch site
AFETR
Launch vehicle
Mass (kg)
RCS (m²)

Purposes: comms

External: N2YO · Heavens-Above · Gunter

§ Orbital elements

Epoch: 2026-05-25T03:35:19.029984Z

Period
94.27 min
Inclination
43.0049°
Eccentricity
0.0001425
Mean motion
15.27567123 rev/d
Perigee alt
482.1 km
Apogee alt
484.1 km
Semi-major
6,861.2 km
B*
-2.2762e-5
RAAN
304.6879°
Arg perigee
270.6552°
Mean anomaly
89.4136°
Rev number
15,520

§ Raw data

STARLINK-302121 57506U 23113M   26145.14952581 -.00000888  00000+0 -22762-4 0  99942 57506  43.0049 304.6879 0001425 270.6552  89.4136 15.27567123155204

JSON: /api/v1/satellites/57506 · /tle

For live sub-satellite position, see the globe view (requires WebGL).

§ Visibility from observer

Set your observer location to see the next 7 days of passes ≥ 10°. The values pass through the URL so the page stays shareable.

No JS? Fill the form by hand. The geolocation button needs JavaScript.